Miscellaneous Local Product
Issued by NWS Hastings, NE

Home | Current Version | Previous Version | Text Only | Print | Product List | Glossary Off
Versions: 1 2 3 4 5 6 7 8 9 10 11 12 13 14 15 16 17 18 19 20 21 22 23 24 25 26 27 28 29 30 31 32 33 34 35 36 37 38 39 40 41 42 43 44 45 46 47 48 49 50

000
AXUS43 KGID 312202
MISGRI

GID CWA HOURLY WEATHER ROUNDUP
NATIONAL WEATHER SERVICE HASTINGS NE
500 PM CDT THU JUL 31 2014

NOTE: "FAIR" INDICATES FEW OR NO CLOUDS BELOW 12,000 FEET WITH NO
SIGNIFICANT WEATHER AND/OR OBSTRUCTIONS TO VISIBILITY.

...SOUTH CENTRAL NEBRASKA...

CITY           SKY/WX    TMP DP  RH WIND       PRES   REMARKS
GRAND ISLAND   MOSUNNY   88  57  34 SW14      30.01F
HASTINGS       PTSUNNY   83  56  39 S6        30.02F
KEARNEY        MOSUNNY   90  57  33 W9        30.02F
ORD            SUNNY     88  53  30 NW13      30.01S
YORK           MOSUNNY   86  64  48 S15       30.01F
AURORA         MOSUNNY   85  62  46 SW10G16   30.01F
LEXINGTON      MOSUNNY   89  53  29 NW12G17   30.05F
HOLDREGE       MOSUNNY   88  53  29 W12       30.04F
HEBRON         MOSUNNY   85  49  28 S6        30.03S

...NEBRASKA PANHANDLE...

CITY           SKY/WX    TMP DP  RH WIND       PRES   REMARKS
CHADRON        SUNNY     86  46  24 VRB5G18   30.12F
ALLIANCE       MOSUNNY   87  42  20 NE9       30.16F
SCOTTSBLUFF    SUNNY     87  41  19 N6        30.17F
SIDNEY         MOSUNNY   87  41  19 N10       30.19F

...WESTERN AND NORTH CENTRAL NEBRASKA...

CITY           SKY/WX    TMP DP  RH WIND       PRES   REMARKS
VALENTINE      SUNNY     87  50  27 N8        30.09F
AINSWORTH      MOSUNNY   84  50  29 N13G18    30.09S
ONEILL         SUNNY     83  64  51 NE15      30.05S
BROKEN BOW     MOSUNNY   87  56  34 N17       30.05F
IMPERIAL       SUNNY     85  50  29 VRB7      30.12F
NORTH PLATTE   MOSUNNY   88  49  25 N12G17    30.07F
MCCOOK         MOSUNNY   89  49  25 W9        30.07F

...EASTERN NEBRASKA...

CITY           SKY/WX    TMP DP  RH WIND       PRES   REMARKS
NORFOLK        CLOUDY    81  61  50 SE14      30.01F
SO SIOUX CITY  CLOUDY    74  63  68 E8        30.05F
TEKAMAH        SUNNY     83  59  44 E12       30.03F
ALBION         PTSUNNY   85  62  45 E13       29.99F
OMAHA EPPLEY   PTSUNNY   83  56  39 SE10      30.03F
OFFUTT AFB     MOSUNNY   86  59  39 SE10      30.02F
MILLARD        MOSUNNY   85  57  38 S6        30.02F
LINCOLN        PTSUNNY   83  56  39 S9        30.02F
NEBRASKA CITY  SUNNY     83  52  34 S8        30.03F
BEATRICE       MOSUNNY   86  57  37 S6        30.02F
FALLS CITY     SUNNY     86  55  34 S8        30.04F

...NORTHERN KANSAS...

CITY           SKY/WX    TMP DP  RH WIND       PRES   REMARKS
GOODLAND       SUNNY     83  47  28 VRB6      30.17F
HILL CITY      SUNNY     88  46  23 W6        30.06F
NORTON         CLEAR     90  36  14 W8        30.05F
PHILLIPSBURG   MOSUNNY   90  46  22 SE5       30.04F
SMITH CENTER   SUNNY     88  52  29 CALM      30.03F
HAYS           SUNNY     84  55  37 SE8       30.07F
RUSSELL        PTSUNNY   85  57  38 S10       30.06F
CONCORDIA      SUNNY     86  57  37 E7G18     30.04F
SALINA         SUNNY     87  49  26 E10       30.05F
TOPEKA         SUNNY     87  53  31 VRB3      30.04F



USA.gov is the U.S. government's official web portal to all federal, state and local government web resources and services.